STARLINK-32405, 61636

Orbit data source: Space-Track

STARLINK-32405, 61636 is a payload satellite owned by SpaceX/Seattle (US) in LEO that was launched on Wed, 23 Oct 2024 UTC via an FALCON 9 launch vehicle from the Air Force Eastern Test Range (AFETR). Payload-class satellites include a variety of spacecraft equipped with specific instruments for various scientific and technological missions. These include communications satellites like Starlink; space stations such as the ISS; scientific satellites like the Hubble; Earth observation satellites from companies like Planet Labs, Umbra, and HawkEye 360; GPS; miniature CubeSats for education and research; and military/defense satellites.

Loading next visibility...
Identifier
61636, 2024-191R
Orbit
LEO
Country
Flag of USUS
Related business
Manufacturer
SpaceX/Seattle
Mission
Operational Commercial Communications
Bus & Motor
STARLINK V2M, Unknown motor
Mass
730 kg wet, ~700 kg dry
Launch date (UTC)
2024-10-23 (1 year ago)
Launch vehicle
FALCON 9
Launch site
Air Force Eastern Test Range (AFETR)
Object type
Payload
Rocket body
Debris
Shape & HBR
Box + 2 Pan, 17.7 m
Radar Cross Section
33.884 m², Large (>1 m²)

Expand to show TLE details & history
Last TLE update: 22 hours ago

TLE from 22 hours ago
0 STARLINK-32405
1 61636U 24191R   25286.25377420  .00008733  00000-0  32623-3 0  9992
2 61636  42.9989 270.9826 0000897 260.5853  99.4897 15.27607709 54944
Epoch: 2025-10-13T06:05Z
TLE epoch observation values (Epoch: 2025-10-13T06:05:26.090Z)
Latitude
-0.00005°
Longitude
157.56463°
Altitude
482.843 km
Speed
7.626 km/s
True Right ascension
18h 03m 55s
True Declination
0° 00' 00"
Sunlit
Object was in daylight at epoch
Visualization orbit readout
Latitude
Unknown
Longitude
Unknown
Altitude
Unknown
Speed
Unknown
Apparent Right ascension
Unknown
Apparent Declination
Unknown
Sunlit
N/A
Visualization observer readout
Local Sidereal Time
22:31:41
Azimuth
Unknown
Elevation
Unknown
Doppler factor
Unknown
Orbital elements
Apogee altitude
485.527 km
Perigee altitude
484.296 km
Semi-major axis
6,863.049 km
Eccentricity
0.00009
Inclination
42.9989°
RAAN
270.9826°
Arg. of periapsis
260.5853°
True anomaly
99.49984°
Mean anomaly
99.4897°
Eccentric anomaly
99.49477°
Mean motion
3.8174 °/min
Orbital period
94.31 mins
BSTAR
0.00032623
Loading maneuver chart data...
Computing Atmospheric mass density...
Loading historical data...
Loading historical data...
Loading historical data...
Loading historical data...
Loading historical data...
Loading historical data...
Loading historical data...

Documentation

Showing up to 5 results
|